Christchurch Automated, New Zealand

1:13 PM NZDT on February 09, 2016 (GMT +1300)
Christchurch International

Weather History for NZCH - November, 2012

Change the Weather History Date:

Wednesday, November 21, 2012

  Actual Average Record
Temperature  
Mean Temperature 53 °F -  
Max Temperature 64 °F 62 °F 80 °F (2003)
Min Temperature 42 °F 44 °F 39 °F (1999)
Degree Days  
Heating Degree Days 12    
Growing Degree Days 3 (Base 50)    
Moisture  
Dew Point 45 °F    
Average Humidity 73    
Maximum Humidity 93    
Minimum Humidity 52    
Precipitation  
Precipitation 0.00 in - - ()
Sea Level Pressure  
Sea Level Pressure 29.99 in    
Wind  
Wind Speed 7 mph ()    
Max Wind Speed 15 mph    
Max Gust Speed -    
Visibility 6.2 miles    
Events      
Averages and records for this station are not official NWS values.
T = Trace of Precipitation, MM = Missing Value Source: Averaged Metar Reports

Daily Weather History Graph

Daily Weather History Graph

Search for Another Location

Airport or City:

Trip Planner

Search our weather history database for the weather conditions in past years. The results will help you decide how hot, cold, wet, or windy it might be!

Date:

Astronomy

Nov. 21, 2012 Rise Set
Actual Time 5:50 AM NZDT 8:41 PM NZDT
Civil Twilight 5:16 AM NZDT 9:15 PM NZDT
Nautical Twilight 4:34 AM NZDT 9:58 PM NZDT
Astronomical Twilight 3:44 AM NZDT 10:47 PM NZDT
Moon 1:26 PM NZDT (11/21) 1:50 AM NZDT (11/21)
Length of Visible Light 15h 58m
Length of Day
14h 51m
First Quarter, 54% of the Moon is Illuminated
Nov 21
First Quarter
Nov 29
Full
Dec 7
Last Quarter
Dec 13
New
Dec 20
First Quarter

Hourly Weather History & Observations

Time (NZDT) Temp. Windchill Dew Point Humidity Pressure Visibility Wind Dir Wind Speed Gust Speed Precip Events Conditions
12:00 AM 44.6 °F 40.2 °F 41.0 °F 87% 30.04 in 6.2 mi NE 8.1 mph - N/A   Partly Cloudy
1:00 AM 46.4 °F 42.4 °F 42.8 °F 87% 30.04 in 6.2 mi ENE 8.1 mph - N/A   Partly Cloudy
2:00 AM 48.2 °F - 42.8 °F 82% 30.01 in 6.2 mi ENE 8.1 mph - N/A   Partly Cloudy
3:00 AM 46.4 °F 42.4 °F 44.6 °F 93% 29.98 in 6.2 mi ENE 8.1 mph - N/A   Partly Cloudy
4:00 AM 44.6 °F 41.4 °F 42.8 °F 93% 29.98 in 6.2 mi East 5.8 mph - N/A   Partly Cloudy
5:00 AM 42.8 °F 39.3 °F 41.0 °F 93% 29.98 in 6.2 mi SSW 5.8 mph - N/A   Partly Cloudy
6:00 AM 46.4 °F 45.2 °F 44.6 °F 93% 29.98 in 6.2 mi WSW 3.5 mph - N/A   Mostly Cloudy
7:00 AM 46.4 °F 44.3 °F 44.6 °F 93% 30.01 in 6.2 mi West 4.6 mph - N/A   Mostly Cloudy
8:00 AM 50.0 °F - 46.4 °F 87% 30.01 in 6.2 mi West 4.6 mph - N/A   Partly Cloudy
9:00 AM 53.6 °F - 44.6 °F 72% 30.04 in 6.2 mi South 2.3 mph - N/A   Scattered Clouds
10:00 AM 57.2 °F - 46.4 °F 67% 30.04 in 6.2 mi West 3.5 mph - N/A   Scattered Clouds
11:00 AM 59.0 °F - 44.6 °F 59% 30.01 in 6.2 mi South 3.5 mph - N/A   Scattered Clouds
12:00 PM 62.6 °F - 46.4 °F 55% 30.01 in 6.2 mi SSE 3.5 mph - N/A   Scattered Clouds
1:00 PM 62.6 °F - 46.4 °F 55% 29.98 in 6.2 mi South 4.6 mph - N/A   Scattered Clouds
2:00 PM 64.4 °F - 46.4 °F 52% 29.98 in 6.2 mi SSW 3.5 mph - N/A   Partly Cloudy
3:00 PM 64.4 °F - 50.0 °F 59% 29.95 in 6.2 mi ENE 11.5 mph - N/A   Partly Cloudy
4:00 PM 62.6 °F - 46.4 °F 55% 29.95 in 6.2 mi East 13.8 mph - N/A   Partly Cloudy
5:00 PM 60.8 °F - 48.2 °F 63% 29.92 in 6.2 mi East 15.0 mph - N/A   Partly Cloudy
6:00 PM 59.0 °F - 46.4 °F 63% 29.95 in 6.2 mi East 15.0 mph - N/A   Partly Cloudy
7:00 PM 57.2 °F - 44.6 °F 63% 29.95 in 6.2 mi ENE 15.0 mph - N/A   Partly Cloudy
8:00 PM 55.4 °F - 44.6 °F 67% 29.98 in 6.2 mi East 13.8 mph - N/A   Partly Cloudy
9:00 PM 51.8 °F - 44.6 °F 76% 29.98 in 6.2 mi ENE 9.2 mph - N/A   Scattered Clouds
10:00 PM 53.6 °F - 44.6 °F 72% 30.01 in 6.2 mi East 8.1 mph - N/A   Mostly Cloudy
11:00 PM 51.8 °F - 44.6 °F 76% 30.04 in 6.2 mi East 9.2 mph - N/A   Mostly Cloudy